Overview Statistics Trail Chart Weather Telemetry Raw packets
 

This is the latest recevied weather packets stored in our database for station/object WA6OOO. If no packets are shown the sender has not sent any weather packets the latest 10 day(s).

<< 75 76 77 78 79 80 81 >>
Time Temp. Humidity Pressure Rain* Wind** Luminosity Snow
1788134454 23.89° C 72% 1013.9 hPa 0 mm - 255 W/m² -
1788134152 24.44° C 71% 1013.8 hPa 0 mm - 269 W/m² -
1788133861 24.44° C 71% 1013.8 hPa 0 mm - 288 W/m² -
1788133543 24.44° C 70% 1014.1 hPa 0 mm - 262 W/m² -
1788133238 24.44° C 71% 1013.9 hPa 0 mm - 301 W/m² -
1788132933 25° C 69% 1014.1 hPa 0 mm - 321 W/m² -
1788132629 25.56° C 68% 1014 hPa 0 mm - 370 W/m² -
1788132325 25.56° C 69% 1014.2 hPa 0 mm - 442 W/m² -
1788132021 24.44° C 71% 1014.3 hPa 0 mm - 474 W/m² -
1788131717 25° C 70% 1014.3 hPa 0 mm - 251 W/m² -
1788131416 25° C 69% 1014.6 hPa 0 mm - 420 W/m² -
1788131111 25° C 70% 1014.3 hPa 0 mm - 320 W/m² -
1788130811 25.56° C 67% 1014.3 hPa 0 mm - 289 W/m² -
1788130506 26.11° C 66% 1014.3 hPa 0 mm - 357 W/m² -
1788130206 26.11° C 65% 1014.5 hPa 0 mm - 585 W/m² -
1788129904 26.11° C 66% 1014.3 hPa 0 mm - 594 W/m² -
1788129601 25.56° C 67% 1014.3 hPa 0 mm - 287 W/m² -
1788129298 26.11° C 66% 1014.6 hPa 0 mm - 260 W/m² -
1788129015 26.67° C 64% 1014.7 hPa 0 mm - 361 W/m² -
1788128692 27.22° C 62% 1014.9 hPa 0 mm - 224 W/m² -
1788128388 27.22° C 62% 1014.8 hPa 0 mm - 224 W/m² -
1788128084 27.22° C 61% 1015 hPa 0 mm - 629 W/m² -
1788127779 27.22° C 61% 1014.9 hPa 0 mm - 629 W/m² -
1788127473 26.67° C 63% 1015 hPa 0 mm - 648 W/m² -
1788127171 26.67° C 65% 1014.9 hPa 0 mm - 639 W/m² -

* Rain latest hour (hover to see other rain measurements)
** Current wind speed in m/s (hover to see current wind gust speed)